• In Belarus
  • List of Countries
  • For 7 days
  • Water Temperature
  • Satellite Maps
  • Weather Map
  • Weather Widgets
  • user-avatar
    Login

    Hourly Weather Lankaran

    Today, 20 February, Tuesday

    Time Temperature Precipitation Wind Pressure Humidity
    00:00 -2°C° 0.1 mm 2 mps 631 mmHg 84%
    01:00 -3°C° 0 mm 2 mps 632 mmHg 83%
    02:00 -3°C° 0 mm 2 mps 632 mmHg 81%
    03:00 -3°C° 0 mm 2 mps 631 mmHg 82%
    04:00 -3°C° 0 mm 2 mps 631 mmHg 80%
    05:00 -3°C° 0 mm 2 mps 631 mmHg 79%
    06:00 -5°C° 0 mm 3 mps 632 mmHg 77%
    07:00 -2°C° 0 mm 2 mps 632 mmHg 75%
    08:00 -1°C° 0 mm 2 mps 632 mmHg 73%
    09:00 +2°C° 0 mm 2 mps 633 mmHg 70%
    10:00 +3°C° 0 mm 2 mps 633 mmHg 68%
    11:00 +3°C° 0 mm 3 mps 633 mmHg 67%
    12:00 +3°C° 0 mm 3 mps 633 mmHg 66%
    13:00 +4°C° 0 mm 3 mps 632 mmHg 65%
    14:00 +4°C° 0 mm 3 mps 632 mmHg 65%
    15:00 +4°C° 0 mm 3 mps 632 mmHg 66%
    16:00 +4°C° 0 mm 2 mps 632 mmHg 71%
    17:00 +3°C° 0 mm 2 mps 631 mmHg 76%
    18:00 +1°C° 0 mm 2 mps 631 mmHg 81%
    19:00 +1°C° 0 mm 2 mps 631 mmHg 81%
    20:00 +1°C° 0 mm 2 mps 631 mmHg 81%
    21:00 -1°C° 0 mm 2 mps 631 mmHg 81%
    22:00 -1°C° 0 mm 2 mps 631 mmHg 81%
    23:00 -1°C° 0 mm 2 mps 631 mmHg 81%

    Tomorrow, 21 February, Wednesday

    Time Temperature Precipitation Wind Pressure Humidity
    00:00 -1°C° 0 mm 2 mps 631 mmHg 81%
    01:00 -1°C° 0 mm 2 mps 631 mmHg 82%
    02:00 -1°C° 0 mm 2 mps 631 mmHg 83%
    03:00 +1°C° 0 mm 1 mps 631 mmHg 84%
    04:00 +1°C° 0 mm 1 mps 631 mmHg 85%
    05:00 +1°C° 0 mm 1 mps 631 mmHg 86%
    06:00 +1°C° 0 mm 1 mps 631 mmHg 87%
    07:00 -1°C° 0 mm 2 mps 631 mmHg 86%
    08:00 +1°C° 0 mm 2 mps 632 mmHg 84%
    09:00 +2°C° 0 mm 2 mps 632 mmHg 83%
    10:00 +3°C° 0.1 mm 2 mps 632 mmHg 82%
    11:00 +3°C° 0.1 mm 2 mps 632 mmHg 82%
    12:00 +3°C° 0.1 mm 3 mps 632 mmHg 81%
    13:00 +3°C° 0.1 mm 3 mps 632 mmHg 80%
    14:00 +3°C° 0.1 mm 3 mps 632 mmHg 79%
    15:00 +3°C° 0.1 mm 3 mps 631 mmHg 79%
    16:00 +2°C° 0.1 mm 3 mps 631 mmHg 82%
    17:00 +2°C° 0.1 mm 3 mps 631 mmHg 85%
    18:00 +1°C° 0.1 mm 3 mps 631 mmHg 88%
    19:00 +2°C° 0.1 mm 2 mps 631 mmHg 89%
    20:00 +2°C° 0.1 mm 2 mps 632 mmHg 90%
    21:00 +2°C° 0.1 mm 2 mps 632 mmHg 90%
    22:00 +2°C° 0.1 mm 2 mps 631 mmHg 90%
    23:00 +2°C° 0.1 mm 1 mps 631 mmHg 90%

    Day after tomorrow, 22 February, Thursday

    Time Temperature Precipitation Wind Pressure Humidity
    00:00 +2°C° 0.1 mm 1 mps 631 mmHg 90%
    01:00 +2°C° 0.1 mm 1 mps 631 mmHg 91%
    02:00 +2°C° 0.1 mm 1 mps 631 mmHg 91%
    03:00 +2°C° 0.1 mm 1 mps 631 mmHg 91%
    04:00 +2°C° 0.1 mm 1 mps 631 mmHg 90%
    05:00 +2°C° 0.1 mm 1 mps 631 mmHg 90%
    06:00 +2°C° 0.1 mm 1 mps 631 mmHg 90%
    07:00 +2°C° 0.1 mm 1 mps 631 mmHg 88%
    08:00 +3°C° 0.1 mm 1 mps 631 mmHg 85%
    09:00 +3°C° 0.1 mm 1 mps 631 mmHg 83%
    10:00 +4°C° 0.2 mm 1 mps 631 mmHg 81%
    11:00 +4°C° 0.2 mm 1 mps 631 mmHg 79%
    12:00 +4°C° 0.2 mm 2 mps 631 mmHg 76%
    13:00 +4°C° 0.2 mm 2 mps 630 mmHg 76%
    14:00 +4°C° 0.2 mm 2 mps 630 mmHg 75%
    15:00 +4°C° 0.2 mm 2 mps 630 mmHg 74%
    16:00 +4°C° 0.1 mm 2 mps 630 mmHg 78%
    17:00 +4°C° 0.1 mm 1 mps 629 mmHg 81%
    18:00 +4°C° 0.1 mm 1 mps 629 mmHg 84%
    19:00 +3°C° 0.1 mm 1 mps 629 mmHg 85%
    20:00 +3°C° 0.1 mm 1 mps 629 mmHg 86%
    21:00 +3°C° 0.1 mm 1 mps 629 mmHg 87%
    22:00 +3°C° 0.2 mm 1 mps 629 mmHg 87%
    23:00 +3°C° 0.2 mm 1 mps 629 mmHg 87%

    23 February, Friday

    Time Temperature Precipitation Wind Pressure Humidity
    00:00 +3°C° 0.2 mm 1 mps 629 mmHg 88%
    01:00 +3°C° 0.4 mm 1 mps 629 mmHg 88%
    02:00 +2°C° 0.4 mm 1 mps 629 mmHg 89%
    03:00 +2°C° 0.4 mm 1 mps 629 mmHg 90%
    04:00 +2°C° 0.4 mm 1 mps 629 mmHg 90%
    05:00 +2°C° 0.4 mm 1 mps 629 mmHg 91%
    06:00 +2°C° 0.4 mm 1 mps 629 mmHg 92%
    07:00 +2°C° 0.5 mm 1 mps 629 mmHg 90%
    08:00 +2°C° 0.5 mm 1 mps 630 mmHg 88%
    09:00 +2°C° 0.5 mm 1 mps 630 mmHg 87%
    10:00 +3°C° 0.3 mm 1 mps 630 mmHg 85%
    11:00 +2°C° 0.3 mm 2 mps 630 mmHg 83%
    12:00 +3°C° 0.3 mm 2 mps 630 mmHg 81%
    13:00 +3°C° 0.3 mm 2 mps 630 mmHg 80%
    14:00 +3°C° 0.3 mm 2 mps 629 mmHg 79%
    15:00 +3°C° 0.3 mm 2 mps 629 mmHg 78%
    16:00 +3°C° 0.1 mm 2 mps 629 mmHg 80%
    17:00 +3°C° 0.1 mm 1 mps 629 mmHg 82%
    18:00 +3°C° 0.1 mm 1 mps 629 mmHg 85%
    19:00 +2°C° 0 mm 1 mps 629 mmHg 85%
    20:00 +2°C° 0 mm 1 mps 629 mmHg 85%
    21:00 +2°C° 0 mm 1 mps 629 mmHg 85%
    22:00 +2°C° 0 mm 1 mps 629 mmHg 82%
    23:00 -1°C° 0 mm 2 mps 628 mmHg 79%

    24 February, Saturday

    Time Temperature Precipitation Wind Pressure Humidity
    00:00 -1°C° 0 mm 2 mps 628 mmHg 77%
    01:00 -1°C° 0 mm 2 mps 628 mmHg 75%
    02:00 -1°C° 0 mm 2 mps 628 mmHg 74%
    03:00 -1°C° 0 mm 2 mps 627 mmHg 73%
    04:00 -1°C° 0 mm 2 mps 627 mmHg 72%
    05:00 -1°C° 0 mm 2 mps 628 mmHg 72%
    06:00 -1°C° 0 mm 2 mps 628 mmHg 71%
    07:00 +1°C° 0 mm 2 mps 628 mmHg 68%
    08:00 +3°C° 0 mm 1 mps 629 mmHg 65%
    09:00 +5°C° 0 mm 1 mps 629 mmHg 62%
    10:00 +4°C° 0 mm 2 mps 629 mmHg 61%
    11:00 +5°C° 0 mm 2 mps 629 mmHg 61%
    12:00 +5°C° 0 mm 2 mps 629 mmHg 60%
    13:00 +6°C° 0 mm 2 mps 629 mmHg 60%
    14:00 +6°C° 0 mm 2 mps 628 mmHg 61%
    15:00 +6°C° 0 mm 2 mps 628 mmHg 62%
    16:00 +5°C° 0 mm 2 mps 628 mmHg 66%
    17:00 +4°C° 0 mm 2 mps 628 mmHg 70%
    18:00 +4°C° 0 mm 1 mps 628 mmHg 74%
    19:00 +4°C° 0 mm 1 mps 628 mmHg 71%
    20:00 +2°C° 0 mm 2 mps 628 mmHg 68%
    21:00 +2°C° 0 mm 2 mps 628 mmHg 65%
    22:00 +2°C° 0 mm 2 mps 628 mmHg 63%
    23:00 +2°C° 0 mm 2 mps 628 mmHg 61%

    25 February, Sunday

    Time Temperature Precipitation Wind Pressure Humidity
    00:00 +2°C° 0 mm 2 mps 628 mmHg 59%
    01:00 +2°C° 0 mm 2 mps 628 mmHg 59%
    02:00 +1°C° 0 mm 2 mps 628 mmHg 58%
    03:00 +1°C° 0 mm 2 mps 628 mmHg 58%
    04:00 +1°C° 0 mm 2 mps 628 mmHg 59%
    05:00 +1°C° 0 mm 2 mps 628 mmHg 60%
    06:00 -1°C° 0 mm 2 mps 628 mmHg 61%
    07:00 +2°C° 0 mm 2 mps 628 mmHg 58%
    08:00 +3°C° 0 mm 2 mps 629 mmHg 55%
    09:00 +5°C° 0 mm 2 mps 629 mmHg 52%
    10:00 +4°C° 0 mm 3 mps 629 mmHg 51%
    11:00 +5°C° 0 mm 3 mps 629 mmHg 50%
    12:00 +7°C° 0 mm 3 mps 629 mmHg 50%
    13:00 +7°C° 0 mm 3 mps 629 mmHg 49%
    14:00 +7°C° 0 mm 3 mps 628 mmHg 49%
    15:00 +8°C° 0 mm 3 mps 628 mmHg 49%
    16:00 +7°C° 0 mm 3 mps 628 mmHg 53%
    17:00 +4°C° 0 mm 3 mps 628 mmHg 56%
    18:00 +3°C° 0 mm 3 mps 628 mmHg 59%
    19:00 +3°C° 0 mm 3 mps 627 mmHg 59%
    20:00 +3°C° 0 mm 3 mps 627 mmHg 58%
    21:00 +2°C° 0 mm 3 mps 627 mmHg 58%
    22:00 +2°C° 0 mm 3 mps 627 mmHg 58%
    23:00 +3°C° 0 mm 2 mps 627 mmHg 58%
    Show more